FW5373 Weather Reports


time (UTC)temp
C
wind
direction
speed
KPH
gust
KPH
rain 1hr
cm
rain 24hr
cm
rain mn
cm
humidity
%
barometer
mb
20260906021606 29 34 8.0 17.7 0.00 0.00 0.00 79 1013.4
20260906014602 30 86 3.2 12.9 0.00 0.00 0.00 78 1012.9
20260906013058 30 44 4.8 14.5 0.00 0.00 0.00 78 1012.9
20260906011555 30 42 1.6 8.0 0.00 0.00 0.00 77 1012.7
20260906010140 31 48 3.2 6.4 0.00 0.00 0.00 76 1012.6
20260906004616 31 69 0.0 3.2 0.00 0.00 0.00 74 1012.3
20260906003102 31 0 1.6 6.4 0.00 0.00 0.00 73 1012.1
20260906001607 31 63 1.6 6.4 0.00 0.00 0.00 72 1012.2
20260906000100 32 29 3.2 9.7 0.00 0.00 0.00 71 1012.2
20260905234604 32 58 1.6 6.4 0.00 0.00 0.00 70 1012.2
20260905233059 33 64 1.6 16.1 0.00 0.00 0.00 67 1012.5
20260905231559 33 40 1.6 12.9 0.00 0.00 0.00 64 1012.4
20260905224602 34 15 4.8 12.9 0.00 0.00 0.00 62 1012.2
20260905223104 34 355 1.6 9.7 0.00 0.00 0.00 63 1012.2
20260905221608 34 42 4.8 14.5 0.00 0.00 0.00 61 1012.1
20260905220100 35 0 3.2 16.1 0.00 0.00 0.00 61 1012.1
20260905214601 35 30 3.2 16.1 0.00 0.00 0.00 59 1012.1
20260905213101 36 53 3.2 9.7 0.00 0.00 0.00 58 1012.1
20260905211607 36 22 3.2 17.7 0.00 0.00 0.00 59 1012.2
20260905210120 35 355 3.2 12.9 0.00 0.00 0.00 58 1012.2
20260905204602 35 43 3.2 12.9 0.00 0.00 0.00 58 1012.3
20260905203058 36 306 1.6 9.7 0.00 0.00 0.00 56 1012.5
20260905201559 36 5 3.2 12.9 0.00 0.00 0.00 55 1012.5
20260905200122 36 28 4.8 14.5 0.00 0.00 0.00 53 1012.5
20260905194603 36 290 4.8 14.5 0.00 0.00 0.00 53 1012.7
20260905193102 36 28 1.6 14.5 0.00 0.00 0.00 56 1012.7
20260905191602 36 26 3.2 17.7 0.00 0.00 0.00 55 1012.8
20260905190104 36 36 3.2 16.1 0.00 0.00 0.00 56 1013.0
20260905184611 36 277 1.6 6.4 0.00 0.00 0.00 55 1013.1
20260905183107 35 268 3.2 9.7 0.00 0.00 0.00 57 1013.3
20260905181604 35 5 3.2 11.3 0.00 0.00 0.00 60 1013.4
20260905174603 34 30 4.8 11.3 0.00 0.00 0.00 58 1013.6
20260905173103 34 312 4.8 12.9 0.00 0.00 0.00 58 1013.6
20260905171602 33 313 1.6 11.3 0.00 0.00 0.00 59 1013.7
20260905170100 33 284 1.6 9.7 0.00 0.00 0.00 61 1013.9
20260905164557 33 51 1.6 9.7 0.00 0.00 0.00 62 1014.0
20260905163104 33 44 1.6 8.0 0.00 0.00 0.00 64 1014.0
20260905161557 33 360 1.6 9.7 0.00 0.00 0.00 65 1014.0
20260905160059 33 30 1.6 8.0 0.00 0.00 0.00 65 1014.2
20260905154605 32 257 0.0 6.4 0.00 0.00 0.00 65 1014.1
20260905153103 32 311 1.6 4.8 0.00 0.00 0.00 63 1014.0
20260905151628 32 284 1.6 8.0 0.00 0.00 0.00 64 1013.9
20260905150058 32 0 0.0 4.8 0.00 0.00 0.00 67 1013.8
20260905144558 31 252 0.0 4.8 0.00 0.00 0.00 70 1013.8
20260905143103 30 0 0.0 6.4 0.00 0.00 0.00 72 1013.9
20260905141558 29 275 3.2 9.7 0.00 0.00 0.00 74 1013.9
20260905140058 27 334 1.6 4.8 0.00 0.00 0.00 80 1014.0
20260905134604 26 0 0.0 3.2 0.00 0.00 0.00 85 1013.9
20260905133056 25 38 0.0 1.6 0.00 0.00 0.00 90 1013.9
20260905131609 24 0 0.0 0.0 0.00 0.00 0.00 92 1014.0
20260905130100 23 0 0.0 3.2 0.00 0.00 0.00 92 1013.9
20260905124605 23 0 0.0 0.0 0.00 0.00 0.00 93 1013.9
20260905123111 23 0 0.0 0.0 0.00 0.00 0.00 93 1013.7
20260905121605 23 0 0.0 0.0 0.00 0.00 0.00 93 1013.6
20260905120058 22 0 0.0 1.6 0.00 0.00 0.00 92 1013.5
20260905114604 22 0 0.0 1.6 0.00 0.00 0.00 92 1013.3
20260905113055 22 0 0.0 0.0 0.00 0.00 0.00 92 1013.2
20260905111605 22 0 0.0 1.6 0.00 0.00 0.00 91 1013.1
20260905110056 23 0 0.0 0.0 0.00 0.00 0.00 91 1013.2
20260905104558 23 0 0.0 1.6 0.00 0.00 0.00 91 1013.1
20260905103107 23 0 0.0 0.0 0.00 0.00 0.00 91 1013.2
20260905101604 23 0 0.0 3.2 0.00 0.00 0.00 90 1013.2
20260905100107 23 360 0.0 3.2 0.00 0.00 0.00 91 1013.2
20260905094555 23 0 0.0 1.6 0.00 0.00 0.00 91 1013.1
20260905093104 23 0 0.0 1.6 0.00 0.00 0.00 91 1013.2
20260905091605 23 0 0.0 1.6 0.00 0.00 0.00 90 1013.2
20260905084612 23 0 0.0 0.0 0.00 0.00 0.00 89 1013.3
20260905083059 24 0 0.0 1.6 0.00 0.00 0.00 89 1013.4
20260905081605 24 0 0.0 1.6 0.00 0.00 0.00 89 1013.5
20260905080255 24 0 0.0 0.0 0.00 0.00 0.00 89 1013.6
20260905080203 24 0 0.0 0.0 0.00 0.00 0.00 89 1013.6
20260905074606 24 0 0.0 0.0 0.00 0.00 0.00 89 1013.5
20260905073059 25 0 0.0 0.0 0.00 0.00 0.00 89 1013.5
20260905071607 25 0 0.0 0.0 0.00 0.00 0.00 89 1013.5
20260905070105 25 0 0.0 1.6 0.00 0.00 0.00 89 1013.4
20260905064612 25 37 0.0 0.0 0.00 0.00 0.00 89 1013.4
20260905063058 25 0 0.0 0.0 0.00 0.00 0.00 88 1013.5
20260905061600 25 0 0.0 3.2 0.00 0.00 0.00 88 1013.5
20260905060104 25 0 0.0 0.0 0.00 0.00 0.00 88 1013.6
20260905054616 25 0 0.0 1.6 0.00 0.00 0.00 88 1013.5
20260905053109 25 0 0.0 3.2 0.00 0.00 0.00 88 1013.5
20260905051600 26 0 0.0 3.2 0.00 0.00 0.00 88 1013.7
20260905050059 26 0 0.0 1.6 0.00 0.00 0.00 89 1013.5
20260905044606 26 0 0.0 0.0 0.00 0.00 0.00 89 1013.6
20260905043112 26 0 0.0 0.0 0.00 0.00 0.00 88 1013.7
20260905041554 26 0 0.0 1.6 0.00 0.00 0.00 87 1013.8
20260905040106 26 0 0.0 0.0 0.00 0.00 0.00 87 1013.7
20260905034603 26 0 0.0 0.0 0.00 0.00 0.00 86 1013.6
20260905033057 27 0 0.0 0.0 0.00 0.00 0.00 85 1013.7
20260905031604 27 0 0.0 0.0 0.00 0.00 0.00 84 1013.6
20260905030104 27 0 0.0 0.0 0.00 0.00 0.00 84 1013.6
20260905024606 27 0 0.0 0.0 0.00 0.00 0.00 85 1013.5
20260905023107 27 0 0.0 0.0 0.00 0.00 0.00 83 1013.5